Location: Breux
(46.3269°N, 3.2993°E)
Time: 21:15:46
(UTC+00:00)

IGS 5A - Pass Details

Date: 09 April 2020
Orbit: 585 x 587 km, 97.6° (Epoch: 19 May)

Event Time Altitude Azimuth Distance (km) Brightness Sun altitude
Exits shadow 20:20:36 33° 79° (E) 993 4.2 -18.8°
Maximum altitude 20:20:55 34° 69° (ENE) 983 4.3 -18.8°
Drops below altitude 10° 20:24:40 10° 5° (N) 1,920 6.5 -19.3°
Sets 20:26:59 0° 356° (N) 2,825 7.5 -19.6°
